Etusivu
METAR-TAF:

METAR-TAF

Lentoasemat :

Derby Field

Lovelock, Nevada, Yhdysvallat

Leveyspiiri: 40-03-59N, Pituuspiiri: 118-33-55W, korkeus merenpinnasta: 1190 m

Tämänhetkinen sää

Tämä raportti tehtiin 31 minuuttia sitten, kello 00.53 UTC
Tuuli 15 kn pohjoisesta
Lämpötila 20°C
Kosteus 10%
Ilmanpaine 1020 hPa
Näkyvyys: 16.1 km
selkeää

METAR: KLOL 090053Z AUTO 36015KT 10SM CLR 20/M13 A3011 RMK AO2 SLP182 T02001128

Aika: 18:24 (01:24 UTC)


TAF: puuttuu

Säähavainnot ja -ennusteet yli 4000 lentoasemalta (METAR- ja TAF-raportit).

Käytössä olevat sääasemat on merkitty karttaan keltaisilla ja punaisilla pisteillä.

Aseta hiiri pisteen päälle nähdäksesi sääaseman nimen.

Klikkaa sitten nähdäksesi säähavainnot ja -ennusteet.

Kartan vaihtaminen: klikkaa mustalla rastilla varustettuja vihreitä pisteitä, niin voit zoomata sisään; viivalla varustettua vihreää pistettä, niin voit zoomata ulos tai vihreitä nuolia, niin pääset viereisille kartoille.


METAR-TAF: